This demonstration page uses our WeatherBlox Daily Observations layout. Learn more.

39.51506, -84.39828

Hourly Observations for November 21, 2018

Temp ( °F °C ) Dew Point ( °F °C ) Humidity (%) Winds ( mph kmh ) Pressure ( in mb ) Visibility ( mi km ) Precip ( " mm )
12:15 am 00:15 Clear 30 -1.3 25 -3.9 83 83 SW 7 11 30.27 1025 10 16.0934 0 0
12:35 am 00:35 Clear 30 -1.1 25 -3.8 82 82 SW 8 13 30.27 1025 10 16.0934 0 0
12:55 am 00:55 Clear 30 -1.1 25 -3.8 82 82 SW 7 11 30.27 1025 10 16.0934 0 0
1:15 am 01:15 Clear 30 -1.2 25 -3.7 83 83 SW 7 11 30.27 1025 10 16.0934 0 0
1:35 am 01:35 Clear 29 -1.4 25 -3.7 85 85 SW 7 11 30.27 1025 10 16.0934 0 0
1:55 am 01:55 Clear 29 -1.4 26 -3.6 85 85 SW 7 11 30.27 1025 10 16.0934 0 0
2:15 am 02:15 Partly Cloudy 29 -1.5 26 -3.6 86 86 SW 7 11 30.27 1025 10 16.0934 0 0
2:35 am 02:35 Mostly Cloudy 30 -1.1 26 -3.3 85 85 SW 9 15 30.27 1025 10 16.0934 0 0
2:55 am 02:55 Cloudy 30 -1.1 26 -3.3 85 85 SW 8 13 30.3 1026 10 16.0934 0 0
3:15 am 03:15 Cloudy 30 -1.1 26 -3.5 84 84 SW 7 11 30.3 1026 10 16.0934 0 0
3:35 am 03:35 Cloudy 29 -1.4 25 -3.7 85 85 SW 8 13 30.3 1026 10 16.0934 0 0
3:55 am 03:55 Cloudy 29 -1.4 25 -3.8 84 84 SW 10 17 30.3 1026 10 16.0934 0 0
4:15 am 04:15 Cloudy 29 -1.4 25 -3.8 84 84 SW 7 11 30.27 1025 10 16.0934 0 0
4:35 am 04:35 Cloudy 30 -1.2 25 -3.7 83 83 SW 7 11 30.27 1025 10 16.0934 0 0
4:55 am 04:55 Cloudy 30 -1.2 26 -3.6 84 84 SSW 9 15 30.27 1025 10 16.0934 0 0
5:15 am 05:15 Partly Cloudy 29 -1.6 25 -3.8 85 85 SSW 10 17 30.27 1025 10 16.0934 0 0
5:35 am 05:35 Clear 29 -1.8 25 -3.8 86 86 SSW 7 11 30.27 1025 10 16.0934 0 0
5:55 am 05:55 Clear 29 -1.8 25 -3.8 86 86 SSW 9 15 30.3 1026 10 16.0934 0 0
6:15 am 06:15 Clear 29 -1.9 25 -3.8 87 87 SSW 8 13 30.3 1026 10 16.0934 0 0
6:35 am 06:35 Clear 29 -1.9 25 -3.8 87 87 SSW 8 13 30.3 1026 7 11.26538 0 0
6:55 am 06:55 Clear 29 -1.8 25 -3.7 87 87 SSW 12 19 30.3 1026 7 11.26538 0 0
7:15 am 07:15 Clear 29 -1.8 25 -3.8 86 86 SSW 13 20 30.3 1026 7 11.26538 0 0
7:35 am 07:35 Sunny 29 -1.7 25 -3.8 86 86 SSW 12 19 30.3 1026 7 11.26538 0 0
7:55 am 07:55 Sunny 29 -1.6 25 -3.8 85 85 SSW 13 20 30.3 1026 7 11.26538 0 0
8:15 am 08:15 Sunny 29 -1.4 25 -3.7 85 85 SW 12 19 30.3 1026 7 11.26538 0 0
8:35 am 08:35 Sunny 30 -1.1 26 -3.5 84 84 SW 9 15 30.33 1027 7 11.26538 0 0
8:55 am 08:55 Sunny 31 -0.8 26 -3.4 83 83 SW 10 17 30.33 1027 7 11.26538 0 0
9:15 am 09:15 Hazy 31 -0.3 27 -3 82 82 SW 13 20 30.33 1027 7 11.26538 0 0
9:35 am 09:35 Hazy 32 0.1 26 -3.1 79 79 SSW 15 24 30.33 1027 7 11.26538 0 0
9:55 am 09:55 Hazy 33 0.6 27 -2.9 78 78 SSW 12 19 30.33 1027 7 11.26538 0 0
10:15 am 10:15 Sunny 34 1.2 27 -2.8 75 75 WSW 10 17 30.33 1027 7 11.26538 0 0
10:35 am 10:35 Partly Cloudy 35 1.7 27 -2.6 73 73 SSW 9 15 30.33 1027 10 16.0934 0 0
10:55 am 10:55 Sunny 36 2.2 28 -2.5 71 71 WSW 9 15 30.33 1027 10 16.0934 0 0
11:15 am 11:15 Partly Cloudy 37 2.7 28 -2.1 71 71 W 10 17 30.33 1027 7 11.26538 0 0
11:35 am 11:35 Mostly Cloudy 38 3.2 29 -1.9 70 70 W 8 13 30.33 1027 10 16.0934 0 0
11:55 am 11:55 Mostly Cloudy 39 3.8 29 -1.7 68 68 SW 6 9 30.33 1027 10 16.0934 0 0
12:15 pm 12:15 Cloudy 39 4.1 29 -1.6 67 67 WSW 8 13 30.33 1027 10 16.0934 0 0
12:35 pm 12:35 Mostly Cloudy 39 4.1 29 -1.6 67 67 W 10 17 30.33 1027 10 16.0934 0 0
12:55 pm 12:55 Partly Cloudy 40 4.2 29 -1.5 67 67 WSW 7 11 30.3 1026 10 16.0934 0 0
1:15 pm 13:15 Mostly Cloudy 41 4.9 30 -1.3 65 65 WSW 6 9 30.33 1027 10 16.0934 0 0
1:35 pm 13:35 Partly Cloudy 41 4.9 30 -1.1 65 65 W 12 19 30.33 1027 10 16.0934 0 0
1:55 pm 13:55 Sunny 42 5.4 30 -0.9 64 64 SW 7 11 30.3 1026 10 16.0934 0 0
2:15 pm 14:15 Partly Cloudy 42 5.7 31 -0.7 64 64 WSW 8 13 30.3 1026 10 16.0934 0 0
2:35 pm 14:35 Mostly Cloudy 43 6.2 32 -0.2 64 64 W 9 15 30.27 1025 10 16.0934 0 0
2:55 pm 14:55 Partly Cloudy 43 6.1 31 -0.3 64 64 W 8 13 30.27 1025 10 16.0934 0 0
3:15 pm 15:15 Cloudy 42 5.6 31 -0.4 66 66 WNW 8 13 30.33 1027 10 16.0934 0 0
3:35 pm 15:35 Cloudy 41 5 31 -0.5 68 68 NW 7 11 30.33 1027 10 16.0934 0 0
3:55 pm 15:55 Cloudy 41 4.8 32 -0.2 70 70 NW 7 11 30.33 1027 10 16.0934 0 0
4:15 pm 16:15 Cloudy 40 4.7 31 -0.4 70 70 NW 5 7 30.33 1027 10 16.0934 0 0
4:35 pm 16:35 Cloudy 40 4.4 31 -0.5 71 71 NNW 6 9 30.33 1027 10 16.0934 0 0
4:55 pm 16:55 Cloudy 40 4.3 31 -0.5 71 71 NNW 8 13 30.33 1027 10 16.0934 0 0
5:15 pm 17:15 Cloudy 40 4.2 31 -0.6 71 71 NW 7 11 30.36 1028 10 16.0934 0 0
5:35 pm 17:35 Cloudy 39 4.1 31 -0.5 72 72 W 5 7 30.36 1028 10 16.0934 0 0
5:55 pm 17:55 Cloudy 39 3.9 31 -0.3 74 74 Calm 30.36 1028 10 16.0934 0 0
6:15 pm 18:15 Cloudy 39 3.8 32 -0.2 75 75 Calm 30.36 1028 10 16.0934 0 0
6:35 pm 18:35 Cloudy 39 3.8 32 -0.2 75 75 NNE 3 6 30.39 1029 10 16.0934 0 0
6:55 pm 18:55 Cloudy 38 3.6 32 0 78 78 Calm 30.39 1029 10 16.0934 0 0
7:15 pm 19:15 Cloudy 38 3.6 32 -0.1 77 77 NNE 3 6 30.39 1029 10 16.0934 0 0
7:35 pm 19:35 Cloudy 38 3.3 32 -0.1 79 79 N 7 11 30.39 1029 10 16.0934 0 0
7:55 pm 19:55 Cloudy 37 3 32 -0.2 80 80 N 7 11 30.39 1029 7 11.26538 0 0
8:15 pm 20:15 Cloudy 37 2.8 31 -0.5 79 79 N 6 9 30.42 1030 10 16.0934 0 0
8:35 pm 20:35 Cloudy 37 2.7 31 -0.7 79 79 N 6 9 30.42 1030 10 16.0934 0 0
8:55 pm 20:55 Cloudy 37 2.7 31 -0.6 79 79 N 6 9 30.42 1030 10 16.0934 0 0
9:15 pm 21:15 Cloudy 37 2.6 31 -0.8 79 79 N 6 9 30.42 1030 10 16.0934 0 0
9:35 pm 21:35 Cloudy 37 2.5 30 -1 78 78 NNE 8 13 30.42 1030 10 16.0934 0 0
9:55 pm 21:55 Cloudy 36 2.4 30 -0.9 79 79 NNE 6 9 30.42 1030 10 16.0934 0 0
10:15 pm 22:15 Cloudy 36 2.2 31 -0.7 81 81 N 5 7 30.42 1030 10 16.0934 0 0
10:35 pm 22:35 Cloudy 36 2.2 31 -0.8 81 81 NNE 3 6 30.42 1030 10 16.0934 0 0
10:55 pm 22:55 Cloudy 36 2.2 30 -0.9 80 80 NNE 5 7 30.42 1030 10 16.0934 0 0
11:15 pm 23:15 Mostly Cloudy 34 1.3 29 -1.5 82 82 NNE 6 9 30.39 1029 10 16.0934 0 0
11:35 pm 23:35 Clear 33 0.8 29 -1.7 84 84 N 3 6 30.42 1030 10 16.0934 0 0
11:55 pm 23:55 Partly Cloudy 34 0.9 29 -1.7 83 83 Calm 30.42 1030 10 16.0934 0 0

Powered by AerisWeather